Regional Weather Roundup
Issued by NWS

Home | Current Version | Previous Version | Graphics & Text | Print | Product List | Glossary On
Versions: 1 2 3 4 5 6 7 8 9 10 11 12 13 14 15 16 17 18 19 20 21 22 23 24 25 26 27 28 29 30 31 32 33 34 35 36 37 38 39 40 41 42 43 44 45 46 47 48 49 50
000
ASUS43 KMPX 180801
RWRMN
WEATHER ROUNDUP FOR MINNESOTA
NATIONAL WEATHER SERVICE TWIN CITIES/CHANHASSEN MN
200 AM CST SAT NOV 18 2017


NOTE: "FAIR" INDICATES FEW OR NO CLOUDS BELOW 12,000 FEET WITH NO
SIGNIFICANT WEATHER AND/OR OBSTRUCTIONS TO VISIBILITY. N/A MEANS
CURRENT SKY AND/OR WEATHER CONDITIONS ARE NOT AVAILABLE.

MNZ060>063-068>070-180900-
   Twin Cities Metro

CITY           SKY/WX    TMP DP  RH WIND       PRES   REMARKS
TWIN CITIES    CLOUDY    36  35  96 NW9       29.71R
ST PAUL        CLOUDY    35  34  96 NW8       29.72R FOG     WCI  29
CRYSTAL        CLOUDY    34  31  88 NW5       29.70R FOG     WCI  30
BLAINE         CLOUDY    36  36 100 NW6       29.70R FOG
LAKEVILLE      CLOUDY    34  34 100 NW8       29.69R FOG     WCI  27
EDEN PRAIRIE   CLOUDY    36  33  89 N7        29.69R FOG
SOUTH ST PAUL  CLOUDY    36  36 100 NW8       29.70R FOG
LAKE ELMO      CLOUDY    34  34 100 NW6       29.69S FOG     WCI  29
$$
MNZ001>005-007-008-013>017-022>024-027-028-180900-
   Northwest Minnesota

CITY           SKY/WX    TMP DP  RH WIND       PRES   REMARKS
BEMIDJI        CLOUDY    17  15  89 NW6       29.76S WCI   9
HALLOCK        PTCLDY    10   9  92 CALM      29.83R
ROSEAU         MOCLDY    14  10  85 W3        29.79S
WARROAD        PTCLDY    12   9  85 CALM      29.78S
CROOKSTON      CLEAR     16  14  93 NW3       29.84S
FOSSTON        CLOUDY    16  12  86 NW3       29.79F
DETROIT LAKES  PTCLDY    21  19  93 NW10      29.79R WCI  10
MOORHEAD       PTCLDY    19  16  86 CALM      29.84S
PARK RAPIDS    CLOUDY    24  17  74 N8        29.74S WCI  15
MAHNOMEN       FAIR      17  15  90 NW5       29.80R WCI  10
$$
MNZ006-009>011-018-025>026-180900-
   North Central Minnesota

CITY           SKY/WX    TMP DP  RH WIND       PRES   REMARKS
BAUDETTE       CLOUDY    16  13  88 W7        29.76R WCI   6
FLAG ISLAND    CLOUDY    12   9  85 NW9       29.76F WCI   0
INTL FALLS     CLOUDY    19  15  84 W3        29.75R FOG
WASKISH        CLOUDY    18  14  86 NW7       29.77S WCI   8
BIG FORK       CLOUDY    21  18  86 CALM      29.75R
LONGVILLE      CLOUDY    25  19  80 NW5       29.75R WCI  19
GRAND RAPIDS   CLOUDY    24  20  84 NW13      29.75R WCI  12
CRANE LAKE     CLOUDY    25  21  86 CALM      29.74R
ORR            CLOUDY    21  18  86 NW6       29.70R WCI  14
COOK           CLOUDY    23  19  86 NW5       29.73R WCI  17
WALKER         FAIR      21  16  79 NW5       29.75S WCI  15
$$
MNZ012-019>021-037-180900-
   Northeast Minnesota

CITY           SKY/WX    TMP DP  RH WIND       PRES   REMARKS
DULUTH         CLOUDY    30  28  92 N8        29.67R WCI  22
ELY            CLOUDY    28  25  86 CALM      29.68R
HIBBING        CLOUDY    24  20  84 N14       29.71R WCI  12
EVELETH        CLOUDY    25  19  80 NW3       29.71R
DULUTH HARBOR  CLOUDY    36  32  87 NW12      29.71R
TWO HARBORS    CLOUDY    34  28  80 NW5       29.67R WCI  30
SILVER BAY     CLOUDY    32  30  93 CALM      29.67R
GRAND MARAIS     N/A     35  29  78 NW3       29.67S
G MARAIS ARPRT CLOUDY    28  23  80 N6        29.62S WCI  22
$$
MNZ029>031-032-039>041-046>048-054>057-064-180900-
   West Central Minnesota

CITY           SKY/WX    TMP DP  RH WIND       PRES   REMARKS
FERGUS FALLS   PTCLDY    21  18  86 NW7       29.83R WCI  13
WHEATON        CLOUDY    23  18  80 NW10      29.82F WCI  12
MORRIS         CLOUDY    25  19  80 NW17      29.77S WCI  11
ALEXANDRIA     CLOUDY    28  21  75 N10       29.74F WCI  19
ELBOW LAKE     FAIR      22  18  86 W10       29.79R WCI  11
WADENA         CLOUDY    23  19  86 NW5       29.75S WCI  17
GLENWOOD       CLOUDY    28  27  93 NW9       29.74S WCI  20
APPLETON       CLOUDY    28  21  74 N12G17    29.78R WCI  18
BENSON         CLOUDY    27  21  80 N10       29.78R WCI  17
ORTONVILLE     CLOUDY    27  19  74 MISG      29.79S
MADISON        CLOUDY    30  25  80 NW12      29.78F WCI  21
WILLMAR        FAIR      30  28  93 NW9       29.74R WCI  22
$$
MNZ033>034-036-042>043-049>051-058-059-180900-
   Central Minnesota

CITY           SKY/WX    TMP DP  RH WIND       PRES   REMARKS
ST CLOUD       CLOUDY    33  31  92 N6        29.71R WCI  28
SAUK CENTRE    CLOUDY    29  25  85 NW8       29.73S WCI  21
PAYNESVILLE    CLOUDY    32  30  94 NW7       29.74R WCI  25
AITKIN         CLOUDY    27  21  80 NW7       29.72R WCI  19
PINE RIVER     CLOUDY    25  19  80 NW8       29.77S WCI  16
BRAINERD       CLOUDY    30  23  75 NW12      29.73R WCI  20
STAPLES        PTCLDY    27  21  80 N9        29.74S WCI  17
LONG PRAIRIE   MOCLDY    28  27  93 NW9       29.73R WCI  20
LITTLE FALLS   CLOUDY    32  25  74 CALM      29.74R
LITCHFIELD     CLOUDY    34  34 100 N6        29.71F WCI  29
BUFFALO        CLOUDY    34  32  93 NW6       29.72R FOG     WCI  29
MAPLE LAKE     CLOUDY    34  33  97 NW7       29.73R WCI  28
HUTCHINSON     PTCLDY    34  33  94 NW10      29.72S WCI  26
$$
MNZ037-044-045-052-053-180900-
   East Central Minnesota

CITY           SKY/WX    TMP DP  RH WIND       PRES   REMARKS
PRINCETON      CLOUDY    34  34 100 NW3       29.71R
MORA           CLOUDY    32  32 100 CALM      29.72R
CAMBRIDGE      CLOUDY    34  34 100 NW3       29.70R FOG
RUSH CITY      CLOUDY    32  31  96 NW3       29.71R FOG
MOOSE LAKE     CLOUDY    32  30  93 N5        29.69R WCI  27
HINCKLEY       FAIR      32  32 100 N5        29.70R WCI  27
CLOQUET        PTCLDY    30  28  93 NW7       29.69R WCI  23
MCGREGOR       PTCLDY    30  28  93 NW6       29.71S WCI  24
$$
MNZ071>073-080-081-089-090-097-098-180900-
   Southwest Minnesota

CITY           SKY/WX    TMP DP  RH WIND       PRES   REMARKS
MONTEVIDEO     CLOUDY    28  23  80 N13       29.76S WCI  18
GRANITE FALLS  CLOUDY    31  26  80 NW9       29.77S WCI  23
CANBY          CLOUDY    30  25  82 W10G17    29.77F WCI  21
MARSHALL       CLOUDY    29  24  82 N15       29.76S WCI  18
REDWOOD FALLS  PTCLDY    31  25  78 NW8       29.73R WCI  23
OLIVIA         CLOUDY    32  30  93 NW12      29.72S WCI  23
PIPESTONE      CLOUDY    30  25  80 N8        29.72R WCI  23
WINDOM           N/A     32  19  59 NW17      29.72R WCI  21
WORTHINGTON    CLOUDY    31  27  85 N16       29.72R WCI  20
JACKSON        MOCLDY    32  32 100 NW13      29.70R WCI  22
SLAYTON        CLOUDY    30  26  84 N14       29.73R WCI  20
$$
MNZ065>067-074>077-082>085-091>093-180900-
   South Central Minnesota

CITY           SKY/WX    TMP DP  RH WIND       PRES   REMARKS
MANKATO        CLOUDY    34  33  96 N8        29.69F FOG     WCI  27
NEW ULM        MOCLDY    34  30  86 CALM      29.71R
ST JAMES       CLOUDY    34  32  93 NW12      29.71R WCI  25
FAIRMONT       CLOUDY    35  33  92 N12       29.69R WCI  27
GLENCOE        CLOUDY    35  35 100 NW7       29.70S WCI  29
FARIBAULT      CLOUDY    36  36 100 N3        29.68F FOG
OWATONNA       CLOUDY    36  36 100 N6        29.67F FOG
WASECA         CLOUDY    36  36 100 N9        29.68F FOG
ALBERT LEA     CLOUDY    36  36 100 N12       29.65F FOG
$$
MNZ078>079-086>088-094>096-180900-
   Southeast Minnesota

CITY           SKY/WX    TMP DP  RH WIND       PRES   REMARKS
ROCHESTER      CLOUDY    35  35 100 N13       29.65R WCI  26
RED WING       CLOUDY    37  34  87 CALM      29.66S
DODGE CENTER   CLOUDY    36  34  93 N10       29.65F FOG
WINONA         CLOUDY    36  36 100 NW5       29.67R
AUSTIN         CLOUDY    36  34  93 N8        29.65R FOG
PRESTON        CLOUDY    35  34  96 N9        29.63R FOG     WCI  27
$$
ABBREVIATIONS USED IN REMARKS
   TC - TEMPERATURES IN CELSIUS
  WCI - WIND CHILL INDEX
   HX - HEAT INDEX
  VSB - VISIBILITY
$$




USA.gov is the U.S. government's official web portal to all federal, state and local government web resources and services.